Weather Roundup
Issued by NWS Chicago, IL

Home | Current Version | Previous Version | Text Only | Print | Product List | Glossary Off
Versions: 1 2 3 4 5 6 7 8 9 10 11 12 13 14 15 16 17 18 19 20 21 22 23 24 25 26 27 28 29 30 31 32 33 34 35 36 37 38 39 40 41 42 43 44 45 46 47 48 49 50

000
NZUS59 KLOT 270409
HRRLOT

CHICAGO AREA WEATHER ROUNDUP
NATIONAL WEATHER SERVICE CHICAGO/ROMEOVILLE IL
1100 PM CDT SAT MAY 26 2018

NOTE: "FAIR" INDICATES FEW OR NO CLOUDS BELOW 12,000 FEET WITH NO
SIGNIFICANT WEATHER AND/OR OBSTRUCTIONS TO VISIBILITY.

* THESE STATIONS ARE NOT UNDER NWS QUALITY CONTROL. THEY ALSO MAY NOT
  REPORT WEATHER SUCH AS PRECIPITATION OR FOG.

ILZ005-006-012>014-019>023-270500-
NORTHEAST ILLINOIS

CITY           SKY/WX    TMP DP  RH WIND       PRES   REMARKS
OHARE            N/A     77  58  51 SE3       29.80R
MIDWAY         MOCLDY    78  59  51 E5        29.80S
AURORA           N/A     74  65  73 CALM      29.81R
LANSING*         N/A     74  67  77 CALM      29.82S
JOLIET*          N/A     74  68  83 CALM      29.81S
WAUKEGAN         N/A     66  59  78 CALM      29.80R
DUPAGE AIRPORT   N/A     76  62  62 CALM      29.81R
WHEELING         N/A     73  62  68 S3        29.82R
KANKAKEE*        N/A     73  63  71 CALM      29.83S
MORRIS*          N/A     78  64  62 CALM      29.80S
LEWIS AIRPORT*   N/A     76  64  66 SW3       29.81S
NORTHERLY ISL    N/A    -27 -62  14 SE3         N/A
$$

WIZ051-052-058>065-066-070>072-270500-
SOUTHEAST WISCONSIN

CITY           SKY/WX    TMP DP  RH WIND       PRES   REMARKS
MILWAUKEE        N/A     73  60  63 S6        29.80R
KENOSHA*         N/A     71  57  61 S6        29.81R
RACINE*          N/A     70  57  63 S6        29.82R
BURLINGTON       N/A     68  62  82 CALM      29.81R
WAUKESHA         N/A     72  61  68 CALM      29.81S
WEST BEND        N/A     70  61  73 CALM      29.79S
$$

INZ001>003-010>013-019-020-270500-
NORTHWEST INDIANA

CITY           SKY/WX    TMP DP  RH WIND       PRES   REMARKS
GARY*            N/A     71  64  81 CALM      29.82S
MICHIGAN CITY* NOT AVBL
RENSSELAER*    NOT AVBL
$$

LMZ740>746-270500-
SOUTHERN LAKE MICHIGAN

STATION/POSITION TIME  SKY/WX   TEMP WIND        PRES    VSBY
                                AIR  DIR/SP/G
                 (UTC)          (F)  (DEG/KT/KT) (MB)    (MI)
HARRISON CRIB    0340            72  190/  9/  9   N/A
BURNHAM HARBOR   0400                150/  1/  3   N/A
CALUMET HARBOR   0342            73   CALM  /  1 1009.1R
BURNS HARBOR     0340            79     CALM     1010.2R
MICHIGAN CITY    0340            77  130/  7/  9   N/A
$$

ABBREVIATIONS USED IN REMARKS
   TC - TEMPERATURE IN CELSIUS
  WCI - WIND CHILL INDEX
   HX - HEAT INDEX
  VSB - VISIBILITY
$$



USA.gov is the U.S. government's official web portal to all federal, state and local government web resources and services.